SCP
0 0 0 0 0 0 0 0 0 0 0 0 0 0 0 0 -0 0 0 0 -0 0 0 0 0 0 0 0 0 0 0 0 0 0 0 0 0 0 0 0 0 0 0 0
0 0 0 0 0 0 0 0 0 0 0 0 0 0 0 0 0 0 0 0 -0 -0 0 0 0 0 0 0 0 0 0 0 0 0 0 0 0 0 0 0 0 0 0 0
0 0 0 0 0 0 0 0 0 0 0 0 0 0 0 0 0 0 0 0 0 0 0 0 0 0 0 0 0 0 0 0 0 0 0 0 0 0 0 0 0 0 0 0
0 0 0 0 0 0 0 0 0 0 0 0 0 0 0 0 0 0 0 0 0 0 0 0 0 0 0 0 0 0 0 0 0 0 0 0 0 0 0 0 0 0 0 0
0 0 0 0 0 0 0 0 0 0 0 0 0 0 0 0 0 0 0 0 0 0 0 0 0 0 0 0 0 0 0 0 0 0 0 0 0 0 0 0 0 0 0 0
0 0 0 0 0 0 0 0 0 0 0 0 0 0 0 0 0 0 0 0 0 0 0 0 0 0 0 0 0 0 0 0 0 0 0 0 0 0 0 0 0 0 0 0
0 0 0 0 0 0 0 0 0 0 0 0 0 0 0 0 0 0 0 0 0 0 0 0 0 0 0 0 0 0 0 0 0 0 0 0 0 0 0 0 0 0 0 0
0 0 0 0 0 0 0 0 0 0 0 0 0 0 0 0 0 0 0 0 0 0 0 0 0 0 0 0 0 0 0 0 0 0 0 0 0 0 0 0 0 0 0 0
0 0 0 0 0 0 0 0 0 0 0 0 0 0 0 0 0 0 0 0 0 0 0 0 0 0 0 0 0 0 0 0 0 0 0 0 0 0 0 0 0 0 0 0
0 0 0 0 0 0 0 0 0 0 0 0 0 0 0 0 0 0 0 0 0 0 0 0 0 0 0 0 0 0 0 0 0 0 0 0 0 0 0 0 0 0 0 0
0 0 0 0 0 0 0 0 0 0 0 0 0 0 0 0 0 0 0 0 0 0 0 0 0 0 0 0 0 0 0 0 0 0 0 0 0 0 0 0 0 0 0 0
0 0 0 0 0 0 0 0 0 0 0 0 0 0 0 0 0 0 0 0 0 0 0 0 0 0 0 0 0 0 0 0 0 0 0 0 0 0 0 0 0 0 0 0
0 0 0 0 0 0 0 0 0 0 0 0 0 0 0 0 0 0 0 0 0 0 0 0 0 0 0 0 0 0 0 0 0 0 0 0 0 0 0 0 0 0 0 0
0 0 0 0 0 0 0 0 0 0 0 0 0 0 0 0 0 0 0 0 0 0 0 0 0 0 0 0 0 0 0 0 0 0 0 0 0 0 0 0 0 0 0 0
0 0 0 0 0 0 0 0 0 0 0 0 0 0 0 0 0 0 0 0 0 0 0 0 0 0 0 0 0 0 0 0 0 0 0 0 0 0 0 0 0 0 0 0
0 0 0 0 0 0 0 0 0 0 0 0 0 0 0 0 0 0 0 0 0 0 0 0 0 0 0 0 0 0 0 0 0 0 0 0 0 0 0 0 0 0 0 0
0 0 0 0 0 0 0 0 0 0 0 0 0 0 0 0 0 0 0 0 0 0 0 0 0 0 0 0 0 0 -0 0 0 0 0 0 0 0 0 0 0 0 0 0
0 0 0 0 0 0 0 0 0 0 0 0 0 0 0 0 0 0 0 0 0 0 0 0 0 0 0 0 0 0 0 0 0 0 0 -0 -0 0 0 0 0 0 0 0
0 0 0 0 0 0 0 0 0 0 0 0 0 0 0 0 0 0 0 0 0 0 0 0 0 0 0 0 0 0 0 0 0 0 0 0 0 0 0 0 0 0 0 0
0 0 0 0 0 0 0 0 0 0 0 0 0 0 0 0 0 0 0 0 0 0 0 0 0 0 0 0 0 0 0 0 0 0 0 0 0 0 0 0 0 0 0 0
0 0 0 0 0 0 0 0 0 0 0 0 0 0 0 0 0 0 0 0 0 0 0 0 0 0 0 0 0 0 0 0 0 0 0 0 0 0 0 0 0 0 0 0
0 0 0 0 0 0 0 0 0 0 0 0 0 0 0 0 0 0 0 0 0 0 0 0 0 0 0 0 0 0 0 0 0 0 0 0 0 0 0 0 0 0 0 0
0 0 0 0 0 0 0 0 0 0 0 0 0 0 0 0 0 0 0 0 0 0 0 0 0 0 0 0 0 0 0 0 0 0 0 -0 0 0 0 0 0 0 0 0
0 0 0 0 0 0 0 0 0 0 0 0 0 0 0 0 0 0 0 0 0 0 0 0 0 0 0 -0 0 0 0 0 -0 -0 -0 -0 -0 -0 -0 -0 -0 0 0 0
0 0 0 0 0 0 0 -0 0 0 0 0 0 0 0 0 0 0 0 0 0 0 0 0 0 0 0 0 0 0 0 0 0 0 0 -0 0 0 -0 -0 -0 -0 -0 0
0 0 0 0 0 0 -0 -0 0 0 0 -0 0 0 0 0 0 0 0 0 0 0 0 0 0 0 0 0 0 0 0 0 0 0 0 0 0 0 -0 -0 -0 -0 -0 -0
0 0 0 0 0 -0 -0 -0 0 0 0 -0 0 -0 0 0 0 0 0 0 0 0 0 0 0 0 0 0 0 0 0 0 0 0 0 0 0 0 -0 -0 -0 -0 -0 -0
Wind_Speed_500mb
41 42 42 45 50 43 29 14 5 14 53 13 9 7 10 9 15 27 12 5 7 3 6 5 12 9 3 16 25 10 1 11 5 7 8 7 11 12 11 10 8 4 10 11
41 39 37 37 39 45 42 31 16 18 21 8 5 11 10 12 14 19 11 9 6 1 6 6 7 7 15 20 10 15 9 4 6 14 13 15 11 9 5 9 6 8 10 10
41 38 35 32 29 33 30 12 7 12 10 19 17 9 11 12 26 30 16 1 8 11 5 4 2 4 8 15 18 20 18 8 12 13 10 7 6 10 10 10 7 6 12 10
37 37 34 30 24 24 21 5 6 12 8 8 12 3 8 11 12 9 14 8 6 6 2 5 6 6 2 9 12 10 10 8 7 6 6 3 4 7 10 2 8 10 14 13
33 35 36 31 22 18 6 9 10 18 21 27 11 1 8 17 28 11 11 16 10 10 9 3 5 10 5 7 4 9 6 4 6 3 8 13 4 9 12 8 3 5 11 11
29 32 33 30 22 13 1 7 9 6 14 14 7 7 14 18 20 11 7 20 13 17 6 3 8 28 26 13 10 6 8 9 7 4 6 11 9 3 7 10 10 12 10 13
26 29 31 27 24 15 10 9 13 7 8 5 7 21 21 29 24 5 17 28 13 10 14 13 16 27 27 28 16 10 10 9 6 6 8 0 15 8 3 2 13 14 16 14
23 24 27 25 20 16 10 5 0 6 6 16 12 34 16 32 19 17 34 41 30 17 15 10 11 11 10 6 1 6 12 9 5 9 9 8 11 9 4 3 5 8 14 13
21 22 23 25 21 16 8 2 2 3 7 3 17 12 25 9 11 13 16 31 23 18 7 9 7 3 5 2 4 9 12 11 10 7 10 13 17 7 14 7 5 5 19 12
20 19 20 22 21 17 7 13 1 1 9 5 21 10 10 17 12 7 7 18 12 12 5 6 5 4 4 4 2 3 6 5 11 8 8 13 11 6 5 8 12 11 25 30
19 18 18 20 19 19 7 17 6 7 10 36 29 24 20 21 12 6 21 8 15 10 9 7 6 5 6 4 6 7 11 9 9 5 6 13 12 7 10 11 21 14 9 6
18 16 15 18 15 16 12 20 6 9 20 17 26 30 32 27 11 20 18 3 9 13 8 5 5 2 3 6 3 8 3 10 8 12 10 5 16 26 19 16 29 17 11 9
17 16 13 14 14 11 13 13 5 3 14 34 25 20 18 22 23 5 5 10 16 12 14 7 4 6 4 4 1 4 13 4 6 7 9 9 27 22 19 15 18 15 14 16
15 14 11 11 11 12 15 10 6 4 9 8 10 4 10 15 22 19 18 13 10 13 12 9 5 4 5 3 6 3 5 11 6 5 8 31 35 19 10 8 9 4 3 13
16 13 9 9 12 14 15 14 15 8 7 8 26 31 6 7 21 22 16 10 7 5 7 6 2 3 6 5 5 2 11 4 4 8 3 25 8 23 13 10 7 5 13 12
16 14 9 8 11 11 3 8 18 13 6 7 7 15 17 12 22 21 17 12 11 12 8 3 4 5 6 4 5 4 23 26 17 6 19 31 23 20 19 16 15 16 20 21
15 13 9 10 10 12 10 5 21 17 9 5 12 13 11 32 9 26 20 19 12 12 9 8 5 1 6 5 6 9 17 21 28 29 21 19 14 9 16 16 17 17 19 23
15 12 8 8 11 16 12 5 14 21 9 6 4 9 7 25 15 13 18 16 13 6 9 3 10 9 8 3 11 12 26 25 23 18 16 19 16 11 12 17 22 21 24 30
14 8 7 8 8 2 11 10 10 14 1 5 5 4 6 11 15 16 16 17 4 8 8 10 7 4 7 13 20 24 24 23 21 14 11 15 19 17 16 22 21 20 21 24
14 10 4 4 4 6 23 8 6 11 8 8 9 12 7 2 7 10 16 12 7 5 11 12 7 8 11 16 12 20 14 5 6 14 20 15 17 20 20 20 21 21 21 19
15 4 4 7 1 11 3 5 8 10 6 13 15 26 7 8 4 5 1 5 1 5 8 10 5 4 14 25 20 11 12 17 17 18 12 11 16 18 12 17 17 18 18 23
7 2 5 6 5 4 4 6 4 7 8 10 16 22 26 7 1 8 4 4 4 6 4 6 4 6 16 25 28 25 25 29 24 23 29 26 20 18 19 17 14 15 16 18
7 3 1 2 5 1 5 6 6 6 11 13 20 7 19 13 7 7 4 4 8 11 4 6 6 17 23 23 26 25 28 26 30 32 24 24 23 23 23 21 17 13 16 23
2 2 3 4 5 6 7 5 7 18 25 32 20 31 12 14 10 10 7 9 7 7 8 8 6 30 31 25 22 19 28 29 33 33 28 31 29 29 29 28 26 22 26 29
1 2 3 8 16 17 16 18 27 20 22 17 9 7 9 5 5 3 4 1 5 1 9 6 31 35 31 25 23 23 27 30 29 26 27 25 25 25 32 35 38 35 37 28
4 7 7 19 18 11 9 29 28 24 13 5 2 1 3 3 5 4 7 4 5 5 2 38 36 31 26 23 21 25 30 29 24 18 20 23 17 18 27 31 32 33 33 32
6 11 20 34 33 22 20 28 34 13 11 2 5 2 0 1 4 4 3 7 6 32 44 35 31 28 28 33 34 32 29 26 24 23 23 21 17 18 20 24 22 21 25 26
Wind_Direction_500mb
326 325 328 329 329 327 332 329 324 102 161 138 194 192 212 335 295 306 284 152 190 235 96 0 358 152 294 204 142 108 92 131 123 192 306 257 171 174 126 121 244 132 150 261
328 327 327 332 336 341 349 331 283 190 192 180 235 267 268 258 275 273 276 227 169 348 119 52 38 52 336 89 82 151 172 15 64 355 356 5 43 10 93 104 83 184 137 262
333 329 327 327 335 334 340 320 333 297 235 219 161 208 263 268 277 271 221 242 58 44 37 161 101 108 41 83 104 109 95 104 139 177 190 162 328 355 355 97 102 190 209 236
332 336 330 325 327 328 331 287 278 1 326 337 334 275 276 285 300 275 144 63 90 115 354 7 119 105 126 33 125 72 95 119 115 158 196 122 195 325 352 66 205 149 256 209
329 337 339 330 326 339 353 335 5 338 304 296 321 109 263 229 262 233 247 136 193 76 98 11 72 154 360 180 305 92 21 179 104 33 360 34 6 0 3 356 330 238 212 259
325 336 340 340 334 359 314 336 291 303 293 335 1 40 317 323 300 246 329 196 105 88 121 43 62 93 86 96 123 102 88 109 81 220 343 48 354 137 350 297 271 210 279 215
315 330 341 345 347 2 356 355 345 337 286 339 360 341 327 326 308 118 32 88 91 129 109 104 90 65 59 61 54 93 111 93 98 174 45 225 237 250 203 290 16 15 55 27
309 320 337 341 340 337 327 330 252 349 301 309 328 342 336 328 1 78 91 90 95 109 75 65 39 355 29 359 301 106 122 115 113 140 185 281 325 309 78 84 64 31 89 60
298 311 324 334 334 323 323 183 138 295 311 211 342 323 5 349 334 351 114 112 102 96 81 72 106 160 196 7 340 10 77 79 127 135 159 213 221 227 337 126 159 156 109 118
294 304 314 326 325 321 326 145 69 266 275 253 8 26 340 347 339 261 12 343 42 71 73 81 122 233 208 207 219 297 4 7 177 177 208 276 233 187 72 134 220 102 84 61
287 294 309 319 320 312 305 159 87 14 281 281 274 289 311 334 346 12 323 20 15 37 67 112 204 135 251 124 232 205 186 177 212 108 139 275 183 46 142 186 163 151 133 65
274 283 301 318 315 313 305 172 178 292 257 270 279 280 248 261 283 280 334 14 12 35 89 53 90 38 43 141 264 339 333 187 177 167 206 260 100 115 98 131 121 96 71 19
265 275 289 309 319 312 304 246 348 251 310 301 270 269 238 240 223 174 304 51 26 23 35 136 138 76 107 66 57 352 332 9 99 70 342 101 80 83 80 78 101 82 40 21
264 260 284 303 304 293 290 249 157 32 324 284 286 246 299 200 206 214 238 270 6 23 46 70 95 110 65 205 188 102 247 13 336 48 76 78 55 76 90 106 93 53 333 294
258 247 271 292 301 294 282 238 196 121 351 303 295 312 185 160 187 195 214 223 184 44 42 57 205 253 71 354 74 12 33 275 94 223 164 116 101 89 79 73 53 290 265 235
242 227 254 286 298 294 347 101 162 155 234 272 310 312 252 160 180 186 203 197 190 160 148 194 255 67 107 118 173 177 76 57 71 94 108 107 89 70 60 60 43 13 346 337
227 218 249 281 284 282 242 205 153 180 196 268 304 291 247 200 214 185 190 203 183 170 169 201 220 314 76 120 177 3 70 94 107 139 124 92 64 30 11 20 14 4 4 354
202 208 256 274 269 289 260 154 167 183 198 264 275 272 290 177 148 152 174 184 196 207 200 205 186 186 153 225 234 204 172 132 131 124 116 117 102 76 21 36 24 15 39 26
187 197 233 262 273 254 76 135 150 174 210 293 293 270 262 161 176 159 165 180 122 221 166 217 158 203 196 218 196 181 188 201 156 119 92 84 65 62 44 49 43 62 28 13
170 170 179 249 163 33 114 146 148 161 221 245 242 276 277 334 75 181 159 172 193 150 230 175 145 233 218 200 194 173 164 186 153 109 118 114 96 77 82 51 51 54 51 34
157 169 277 280 325 153 203 197 170 190 239 226 234 233 242 356 113 162 148 158 105 127 259 144 209 237 206 185 173 191 161 122 115 108 113 124 122 116 89 71 59 53 46 33
156 228 300 119 181 222 240 198 212 182 232 228 196 219 203 253 141 68 50 110 50 220 296 150 179 260 155 142 129 121 122 127 110 109 106 74 64 93 94 81 64 43 34 34
191 276 160 311 227 136 230 211 211 213 215 235 177 183 168 203 102 14 78 147 213 129 51 184 202 172 142 132 137 126 138 123 110 104 105 112 119 95 74 69 57 39 52 55
292 6 13 240 200 246 222 318 307 291 307 333 188 176 157 184 144 172 147 226 122 191 154 227 174 144 132 134 127 151 141 130 126 126 121 119 110 90 74 67 60 58 57 56
272 125 223 238 255 309 344 344 333 318 334 335 333 181 166 39 121 213 102 95 229 157 183 161 134 128 133 134 143 132 129 132 135 132 129 124 112 98 91 77 63 55 53 50
242 215 255 263 296 303 345 348 340 349 341 84 184 49 86 121 147 122 197 173 195 223 160 133 130 124 133 144 142 143 131 142 140 132 133 125 103 100 94 81 75 70 58 63
233 237 254 264 278 288 339 334 318 329 301 91 9 53 354 345 85 149 40 192 193 132 131 133 129 130 125 117 112 122 134 131 136 140 138 130 115 105 99 82 78 71 64 62
Wind_Speed_850mb
41 42 42 45 50 43 29 14 5 14 53 13 9 7 10 9 15 27 12 5 7 3 6 5 12 9 3 16 25 10 1 11 5 7 8 7 11 12 11 10 8 4 10 11
41 39 37 37 39 45 42 31 16 18 21 8 5 11 10 12 14 19 11 9 6 1 6 6 7 7 15 20 10 15 9 4 6 14 13 15 11 9 5 9 6 8 10 10
41 38 35 32 29 33 30 12 7 12 10 19 17 9 11 12 26 30 16 1 8 11 5 4 2 4 8 15 18 20 18 8 12 13 10 7 6 10 10 10 7 6 12 10
37 37 34 30 24 24 21 5 6 12 8 8 12 3 8 11 12 9 14 8 6 6 2 5 6 6 2 9 12 10 10 8 7 6 6 3 4 7 10 2 8 10 14 13
33 35 36 31 22 18 6 9 10 18 21 27 11 1 8 17 28 11 11 16 10 10 9 3 5 10 5 7 4 9 6 4 6 3 8 13 4 9 12 8 3 5 11 11
29 32 33 30 22 13 1 7 9 6 14 14 7 7 14 18 20 11 7 20 13 17 6 3 8 28 26 13 10 6 8 9 7 4 6 11 9 3 7 10 10 12 10 13
26 29 31 27 24 15 10 9 13 7 8 5 7 21 21 29 24 5 17 28 13 10 14 13 16 27 27 28 16 10 10 9 6 6 8 0 15 8 3 2 13 14 16 14
23 24 27 25 20 16 10 5 0 6 6 16 12 34 16 32 19 17 34 41 30 17 15 10 11 11 10 6 1 6 12 9 5 9 9 8 11 9 4 3 5 8 14 13
21 22 23 25 21 16 8 2 2 3 7 3 17 12 25 9 11 13 16 31 23 18 7 9 7 3 5 2 4 9 12 11 10 7 10 13 17 7 14 7 5 5 19 12
20 19 20 22 21 17 7 13 1 1 9 5 21 10 10 17 12 7 7 18 12 12 5 6 5 4 4 4 2 3 6 5 11 8 8 13 11 6 5 8 12 11 25 30
19 18 18 20 19 19 7 17 6 7 10 36 29 24 20 21 12 6 21 8 15 10 9 7 6 5 6 4 6 7 11 9 9 5 6 13 12 7 10 11 21 14 9 6
18 16 15 18 15 16 12 20 6 9 20 17 26 30 32 27 11 20 18 3 9 13 8 5 5 2 3 6 3 8 3 10 8 12 10 5 16 26 19 16 29 17 11 9
17 16 13 14 14 11 13 13 5 3 14 34 25 20 18 22 23 5 5 10 16 12 14 7 4 6 4 4 1 4 13 4 6 7 9 9 27 22 19 15 18 15 14 16
15 14 11 11 11 12 15 10 6 4 9 8 10 4 10 15 22 19 18 13 10 13 12 9 5 4 5 3 6 3 5 11 6 5 8 31 35 19 10 8 9 4 3 13
16 13 9 9 12 14 15 14 15 8 7 8 26 31 6 7 21 22 16 10 7 5 7 6 2 3 6 5 5 2 11 4 4 8 3 25 8 23 13 10 7 5 13 12
16 14 9 8 11 11 3 8 18 13 6 7 7 15 17 12 22 21 17 12 11 12 8 3 4 5 6 4 5 4 23 26 17 6 19 31 23 20 19 16 15 16 20 21
15 13 9 10 10 12 10 5 21 17 9 5 12 13 11 32 9 26 20 19 12 12 9 8 5 1 6 5 6 9 17 21 28 29 21 19 14 9 16 16 17 17 19 23
15 12 8 8 11 16 12 5 14 21 9 6 4 9 7 25 15 13 18 16 13 6 9 3 10 9 8 3 11 12 26 25 23 18 16 19 16 11 12 17 22 21 24 30
14 8 7 8 8 2 11 10 10 14 1 5 5 4 6 11 15 16 16 17 4 8 8 10 7 4 7 13 20 24 24 23 21 14 11 15 19 17 16 22 21 20 21 24
14 10 4 4 4 6 23 8 6 11 8 8 9 12 7 2 7 10 16 12 7 5 11 12 7 8 11 16 12 20 14 5 6 14 20 15 17 20 20 20 21 21 21 19
15 4 4 7 1 11 3 5 8 10 6 13 15 26 7 8 4 5 1 5 1 5 8 10 5 4 14 25 20 11 12 17 17 18 12 11 16 18 12 17 17 18 18 23
7 2 5 6 5 4 4 6 4 7 8 10 16 22 26 7 1 8 4 4 4 6 4 6 4 6 16 25 28 25 25 29 24 23 29 26 20 18 19 17 14 15 16 18
7 3 1 2 5 1 5 6 6 6 11 13 20 7 19 13 7 7 4 4 8 11 4 6 6 17 23 23 26 25 28 26 30 32 24 24 23 23 23 21 17 13 16 23
2 2 3 4 5 6 7 5 7 18 25 32 20 31 12 14 10 10 7 9 7 7 8 8 6 30 31 25 22 19 28 29 33 33 28 31 29 29 29 28 26 22 26 29
1 2 3 8 16 17 16 18 27 20 22 17 9 7 9 5 5 3 4 1 5 1 9 6 31 35 31 25 23 23 27 30 29 26 27 25 25 25 32 35 38 35 37 28
4 7 7 19 18 11 9 29 28 24 13 5 2 1 3 3 5 4 7 4 5 5 2 38 36 31 26 23 21 25 30 29 24 18 20 23 17 18 27 31 32 33 33 32
6 11 20 34 33 22 20 28 34 13 11 2 5 2 0 1 4 4 3 7 6 32 44 35 31 28 28 33 34 32 29 26 24 23 23 21 17 18 20 24 22 21 25 26
Wind_Direction_850mb
326 325 328 329 329 327 332 329 324 102 161 138 194 192 212 335 295 306 284 152 190 235 96 0 358 152 294 204 142 108 92 131 123 192 306 257 171 174 126 121 244 132 150 261
328 327 327 332 336 341 349 331 283 190 192 180 235 267 268 258 275 273 276 227 169 348 119 52 38 52 336 89 82 151 172 15 64 355 356 5 43 10 93 104 83 184 137 262
333 329 327 327 335 334 340 320 333 297 235 219 161 208 263 268 277 271 221 242 58 44 37 161 101 108 41 83 104 109 95 104 139 177 190 162 328 355 355 97 102 190 209 236
332 336 330 325 327 328 331 287 278 1 326 337 334 275 276 285 300 275 144 63 90 115 354 7 119 105 126 33 125 72 95 119 115 158 196 122 195 325 352 66 205 149 256 209
329 337 339 330 326 339 353 335 5 338 304 296 321 109 263 229 262 233 247 136 193 76 98 11 72 154 360 180 305 92 21 179 104 33 360 34 6 0 3 356 330 238 212 259
325 336 340 340 334 359 314 336 291 303 293 335 1 40 317 323 300 246 329 196 105 88 121 43 62 93 86 96 123 102 88 109 81 220 343 48 354 137 350 297 271 210 279 215
315 330 341 345 347 2 356 355 345 337 286 339 360 341 327 326 308 118 32 88 91 129 109 104 90 65 59 61 54 93 111 93 98 174 45 225 237 250 203 290 16 15 55 27
309 320 337 341 340 337 327 330 252 349 301 309 328 342 336 328 1 78 91 90 95 109 75 65 39 355 29 359 301 106 122 115 113 140 185 281 325 309 78 84 64 31 89 60
298 311 324 334 334 323 323 183 138 295 311 211 342 323 5 349 334 351 114 112 102 96 81 72 106 160 196 7 340 10 77 79 127 135 159 213 221 227 337 126 159 156 109 118
294 304 314 326 325 321 326 145 69 266 275 253 8 26 340 347 339 261 12 343 42 71 73 81 122 233 208 207 219 297 4 7 177 177 208 276 233 187 72 134 220 102 84 61
287 294 309 319 320 312 305 159 87 14 281 281 274 289 311 334 346 12 323 20 15 37 67 112 204 135 251 124 232 205 186 177 212 108 139 275 183 46 142 186 163 151 133 65
274 283 301 318 315 313 305 172 178 292 257 270 279 280 248 261 283 280 334 14 12 35 89 53 90 38 43 141 264 339 333 187 177 167 206 260 100 115 98 131 121 96 71 19
265 275 289 309 319 312 304 246 348 251 310 301 270 269 238 240 223 174 304 51 26 23 35 136 138 76 107 66 57 352 332 9 99 70 342 101 80 83 80 78 101 82 40 21
264 260 284 303 304 293 290 249 157 32 324 284 286 246 299 200 206 214 238 270 6 23 46 70 95 110 65 205 188 102 247 13 336 48 76 78 55 76 90 106 93 53 333 294
258 247 271 292 301 294 282 238 196 121 351 303 295 312 185 160 187 195 214 223 184 44 42 57 205 253 71 354 74 12 33 275 94 223 164 116 101 89 79 73 53 290 265 235
242 227 254 286 298 294 347 101 162 155 234 272 310 312 252 160 180 186 203 197 190 160 148 194 255 67 107 118 173 177 76 57 71 94 108 107 89 70 60 60 43 13 346 337
227 218 249 281 284 282 242 205 153 180 196 268 304 291 247 200 214 185 190 203 183 170 169 201 220 314 76 120 177 3 70 94 107 139 124 92 64 30 11 20 14 4 4 354
202 208 256 274 269 289 260 154 167 183 198 264 275 272 290 177 148 152 174 184 196 207 200 205 186 186 153 225 234 204 172 132 131 124 116 117 102 76 21 36 24 15 39 26
187 197 233 262 273 254 76 135 150 174 210 293 293 270 262 161 176 159 165 180 122 221 166 217 158 203 196 218 196 181 188 201 156 119 92 84 65 62 44 49 43 62 28 13
170 170 179 249 163 33 114 146 148 161 221 245 242 276 277 334 75 181 159 172 193 150 230 175 145 233 218 200 194 173 164 186 153 109 118 114 96 77 82 51 51 54 51 34
157 169 277 280 325 153 203 197 170 190 239 226 234 233 242 356 113 162 148 158 105 127 259 144 209 237 206 185 173 191 161 122 115 108 113 124 122 116 89 71 59 53 46 33
156 228 300 119 181 222 240 198 212 182 232 228 196 219 203 253 141 68 50 110 50 220 296 150 179 260 155 142 129 121 122 127 110 109 106 74 64 93 94 81 64 43 34 34
191 276 160 311 227 136 230 211 211 213 215 235 177 183 168 203 102 14 78 147 213 129 51 184 202 172 142 132 137 126 138 123 110 104 105 112 119 95 74 69 57 39 52 55
292 6 13 240 200 246 222 318 307 291 307 333 188 176 157 184 144 172 147 226 122 191 154 227 174 144 132 134 127 151 141 130 126 126 121 119 110 90 74 67 60 58 57 56
272 125 223 238 255 309 344 344 333 318 334 335 333 181 166 39 121 213 102 95 229 157 183 161 134 128 133 134 143 132 129 132 135 132 129 124 112 98 91 77 63 55 53 50
242 215 255 263 296 303 345 348 340 349 341 84 184 49 86 121 147 122 197 173 195 223 160 133 130 124 133 144 142 143 131 142 140 132 133 125 103 100 94 81 75 70 58 63
233 237 254 264 278 288 339 334 318 329 301 91 9 53 354 345 85 149 40 192 193 132 131 133 129 130 125 117 112 122 134 131 136 140 138 130 115 105 99 82 78 71 64 62